This is the latest recevied weather packets stored in our database for station/object KI5MKI. If no packets are shown the sender has not sent any weather packets the latest 10 day(s).
| Time | Temp. | Humidity | Pressure | Rain* | Wind** | Luminosity | Snow |
|---|---|---|---|---|---|---|---|
| 1777820153 | 21.67° C | 52% | 1021.9 hPa | 0 mm | - | 582 W/m² | - |
| 1777819850 | 21.11° C | 53% | 1022 hPa | 0 mm | - | 566 W/m² | - |
| 1777819548 | 20.56° C | 57% | 1021.9 hPa | 0 mm | - | 551 W/m² | - |
| 1777819245 | 20.56° C | 55% | 1022 hPa | 0 mm | - | 147 W/m² | - |
| 1777818942 | 20.56° C | 59% | 1022.2 hPa | 0 mm | - | 172 W/m² | - |
| 1777818638 | 20° C | 59% | 1022.2 hPa | 0 mm | - | 74 W/m² | - |
| 1777818336 | 20° C | 59% | 1022.1 hPa | 0 mm | - | 136 W/m² | - |
| 1777818032 | 19.44° C | 60% | 1021.9 hPa | 0 mm | - | 215 W/m² | - |
| 1777817729 | 19.44° C | 63% | 1022 hPa | 0 mm | - | 70 W/m² | - |
| 1777817426 | 18.89° C | 65% | 1021.9 hPa | 0 mm | - | 93 W/m² | - |
| 1777817122 | 18.89° C | 66% | 1021.9 hPa | 0 mm | - | 70 W/m² | - |
| 1777816820 | 18.33° C | 67% | 1022 hPa | 0 mm | - | 68 W/m² | - |
| 1777816517 | 17.78° C | 67% | 1021.9 hPa | 0 mm | - | 68 W/m² | - |
| 1777816214 | 17.78° C | 70% | 1022 hPa | 0 mm | - | 69 W/m² | - |
| 1777815912 | 17.22° C | 71% | 1021.8 hPa | 0 mm | - | 62 W/m² | - |
| 1777815609 | 16.67° C | 72% | 1021.7 hPa | 0 mm | - | 61 W/m² | - |
| 1777815306 | 16.67° C | 71% | 1021.8 hPa | 0 mm | - | 60 W/m² | - |
| 1777815002 | 16.11° C | 73% | 1021.9 hPa | 0 mm | - | 59 W/m² | - |
| 1777814699 | 16.11° C | 72% | 1021.8 hPa | 0 mm | - | 58 W/m² | - |
| 1777814395 | 15.56° C | 74% | 1021.9 hPa | 0 mm | - | 57 W/m² | - |
| 1777814093 | 15.56° C | 74% | 1021.8 hPa | 0 mm | - | 55 W/m² | - |
| 1777813789 | 15° C | 73% | 1021.8 hPa | 0 mm | - | 54 W/m² | - |
| 1777813487 | 15° C | 73% | 1021.9 hPa | 0 mm | - | 52 W/m² | - |
| 1777813184 | 15° C | 73% | 1021.8 hPa | 0 mm | - | 52 W/m² | - |
| 1777812882 | 14.44° C | 74% | 1021.8 hPa | 0 mm | - | 50 W/m² | - |
* Rain latest hour (hover to see other rain measurements)
** Current wind speed in m/s (hover to see current wind gust speed)